Regional Weather Roundup
Issued by NWS Cleveland, OH

Home | Current Version | Previous Version | Graphics & Text | Print | Product List | Glossary On
Versions: 1 2 3 4 5 6 7 8 9 10 11 12 13 14 15 16 17 18 19 20 21 22 23 24 25 26 27 28 29 30 31 32 33 34 35 36 37 38 39 40 41 42 43 44 45 46 47 48 49 50
000
ASUS41 KCLE 290200
RWRCLE
OHIO REGIONAL WEATHER ROUNDUP
NATIONAL WEATHER SERVICE WILMINGTON, OH
900 PM EST WED JAN 28 2015

NOTE: "FAIR" INDICATES FEW OR NO CLOUDS BELOW 12,000 FEET WITH NO
SIGNIFICANT WEATHER AND/OR OBSTRUCTIONS TO VISIBILITY.

OHZ001>008-015>018-024>027-034-035-043-044-290300-
   NORTHWEST OHIO

CITY           SKY/WX    TMP DP  RH WIND       PRES   REMARKS
DEFIANCE       MOCLDY    24  15  68 SE7       30.17F WCI  16
FINDLAY        PTCLDY    23  13  65 SE13      30.19F WCI  11
TOLEDO EXPRESS PTCLDY    21  13  71 SE5       30.19F WCI  15
TOLEDO EXEC    MOCLDY    22  13  68 SE8       30.23F WCI  12
LIMA           MOCLDY    26  16  65 SE16      30.16F WCI  14
$$

OHZ009>014-019>023-028>033-038-089-290300-
   NORTHEAST OHIO

CITY           SKY/WX    TMP DP  RH WIND       PRES   REMARKS
CLE-HOPKINS    CLOUDY    23   8  52 S8        30.29F WCI  14
CLE-LAKEFRONT  MOCLDY    25   8  48 SE7       30.28S WCI  17
CUY CO. ARPT   MOCLDY    25  12  58 S8        30.28S WCI  16
LORAIN-ELYRIA  MOCLDY    21   8  57 S7        30.26F WCI  12
ASHTABULA      MOCLDY    20   0  41 S7        30.28S WCI  11
AKRON-CANTON   PTCLDY    21   8  57 S9        30.26S WCI  11
WOOSTER        NOT AVBL
MANSFIELD      PTCLDY    22  11  62 SE13      30.22F WCI  10
YOUNGSTOWN     CLOUDY    18   4  54 SE6       30.27R WCI  10
$$

OHZ042-051>053-060>062-070>072-077>081-290300-
  SOUTHWEST OHIO

CITY           SKY/WX    TMP DP  RH WIND       PRES   REMARKS
CINC-COVINGTON MOCLDY    30  19  63 SE12      30.20F WCI  20
CINC-LUNKEN    MOCLDY    30  19  63 CALM      30.23F
HAMILTON       MOCLDY    32  19  58 SE5       30.22F WCI  27
DAYTON         NOT AVBL
WRIGHT-PAT AFB MOCLDY    26  18  74 SE6       30.20F WCI  19
DAYTON GENERAL MOCLDY    29  19  66 SE9       30.19F WCI  20
WILMINGTON     FAIR      27  18  69 SE9       30.21F WCI  18
$$

OHZ036-037-039>041-045>050-054>059-063>069-073>076-082>088-290300-
  CENTRAL AND SOUTHEAST OHIO

CITY           SKY/WX    TMP DP  RH WIND       PRES   REMARKS
COLUMBUS       PTCLDY    24  13  62 SE6       30.27S WCI  17
OSU AIRPORT    MOCLDY    24  14  65 SE7       30.24F WCI  16
BOLTON FIELD   NOT AVBL
RICKENBACK AFB NOT AVBL
NEWARK         CLEAR     15  10  80 CALM      30.28R
MARION         MOCLDY    21   8  57 S9        30.22F WCI  11
LANCASTER      PTCLDY    17  13  84 CALM      30.27F
ZANESVILLE     PTCLDY    21  11  65 SE5       30.29S WCI  15
NEW PHILLY     PTCLDY    18   8  65 SE5       30.31R WCI  11
$$


USA.gov is the U.S. government's official web portal to all federal, state and local government web resources and services.